Flag for Canada Weather past 2 weeks in Cambridge, Ontario, Canada

Now
64 °F

Fog.


Feels Like: 64 °F
Forecast: 61 / 74 °F
Wind: 3 mph from North

Location: Waterloo Well

Current Time: Aug 23, 2014 at 8:21:22 AM

Latest Report: Aug 23, 2014 at 7:59 AM


Visibility: 2 mi

Pressure: 30.06 "Hg

Humidity: 94%

Dew point: 63 °F

Location of CambridgeLocation

Historic Weather in Cambridge — Graph

°F

Cambridge temperature yesterday

Maximum temperature yesterday: 77 °F (at 5:00 PM)
Minimum temperature yesterday: 57 °F (at 2:00 AM)
Average temperature yesterday: 66 °F

Past Weeks' High & Low Weather Summary

 TemperatureHumidityPressure
High79 °F (Aug 10, 2:00 PM)100% (Aug 8, 7:00 AM)30.20 "Hg (Aug 8, 7:00 AM)
Low45 °F (Aug 19, 5:03 AM)44% (Aug 8, 6:00 PM)29.67 "Hg (Aug 12, 5:00 PM)
Average63 °F82%29.95 "Hg
* Reported Aug 8 7:00 AM — Aug 23 7:04 AM, Cambridge, Weather by CustomWeather, © 2014

Note: Actual official high and low records may vary slightly from our data, if they occured in-between our weather recording intervals... More about our weather records

Advertising

Cambridge weather history for previous 24 hours

 ConditionsComfort  
Time TempWeatherWind HumidityBarometerVisibility
7:04 AM
Aug 23
63 °FFog.3 mph94%30.06 "Hg2 mi
6:01 AM59 °FFog.2 mph94%30.04 "Hg1 mi
6:00 AM59 °FFog.2 mph94%30.04 "Hg1 mi
5:02 AM59 °FFog.3 mph94%30.03 "Hg1 mi
4:53 AM61 °FFog.3 mph94%30.03 "Hg1 mi
4:00 AM61 °FFog.6 mph94%30.03 "Hg2 mi
3:56 AM61 °FFog.5 mph94%30.03 "Hg2 mi
3:00 AM59 °FFog.3 mph100%30.02 "Hg1 mi
2:48 AM59 °FFog.3 mph94%30.03 "Hg1 mi
2:00 AM61 °FFog.3 mph94%30.03 "Hg1 mi
1:54 AM61 °FFog.3 mph94%30.03 "Hg2 mi
1:00 AM61 °FFog.3 mph94%30.04 "Hg5 mi
12:57 AM63 °FFog.3 mph88%30.04 "Hg5 mi
12:00 AM63 °FPassing clouds.5 mph94%30.04 "Hg9 mi
11:00 PM
Aug 22
63 °FPassing clouds.3 mph94%30.03 "Hg9 mi
10:00 PM66 °FPassing clouds.3 mph88%30.03 "Hg9 mi
9:00 PM68 °FPartly sunny.5 mph88%30.01 "Hg9 mi
8:51 PM66 °FPartly sunny.5 mph88%30.01 "Hg7 mi
8:00 PM72 °FMostly cloudy.6 mph78%30.01 "Hg9 mi
7:00 PM73 °FOvercast.7 mph74%29.98 "Hg9 mi
6:00 PM77 °FSunny.2 mph61%29.98 "Hg9 mi
5:00 PM77 °FSunny.2 mph65%29.97 "Hg9 mi
4:00 PM75 °FBroken clouds.6 mph69%29.99 "Hg9 mi
3:00 PM75 °FPartly sunny.3 mph69%29.99 "Hg9 mi
2:00 PM75 °FMore clouds than sun.3 mph74%30.01 "Hg9 mi
1:00 PM75 °FScattered clouds.3 mph74%29.99 "Hg9 mi
12:46 PM73 °FBroken clouds.5 mph74%30.00 "Hg9 mi
12:00 PM73 °FBroken clouds.6 mph78%30.00 "Hg9 mi
11:00 AM70 °FMostly cloudy.6 mph83%30.01 "Hg9 mi
10:00 AM68 °FOvercast.5 mph88%30.01 "Hg9 mi
9:00 AM63 °FOvercast.2 mph94%30.01 "Hg9 mi
8:00 AM61 °FPartly sunny.No wind100%30.01 "Hg8 mi
Weather by CustomWeather, © 2014

See weather overviewHow to use our weather pages